Flag for Moldova Weather past 2 weeks in Chisinau, Moldova

Now
45 °F

Scattered clouds.


Feels Like: 37 °F
Forecast: 34 / 45 °F
Wind: 17 mph from Northwest

Location: Chisinau International Airport

Current Time: Mar 4, 2015 at 11:24:48 AM

Latest Report: Mar 4, 2015 at 11:00 AM


Visibility: N/A

Pressure: 30.18 "Hg

Humidity: 46%

Dew point: 25 °F

Location of ChisinauLocation

Historic Weather in Chisinau — Graph

°F

Chisinau temperature yesterday

Maximum temperature yesterday: 45 °F (at 2:30 PM)
Minimum temperature yesterday: 36 °F (at 11:00 PM)
Average temperature yesterday: 41 °F

Past Weeks' High & Low Weather Summary

 TemperatureHumidityPressure
High55 °F (Feb 27, 3:30 PM)93% (Feb 20, 3:30 AM)30.72 "Hg (Feb 20, 3:30 AM)
Low14 °F (Feb 19, 1:30 AM)25% (Feb 18, 4:30 PM)29.77 "Hg (Mar 3, 1:30 AM)
Average39 °F74%30.08 "Hg
* Reported Feb 17 10:00 AM — Mar 4 10:00 AM, Chisinau, Weather by CustomWeather, © 2015

Note: Actual official high and low records may vary slightly from our data, if they occured in-between our weather recording intervals... More about our weather records

Advertising

Chisinau weather history for previous 24 hours

 ConditionsComfort  
Time TempWeatherWind HumidityBarometerVisibility
10:00 AM
Wed, Mar 4
43 °FScattered clouds.13 mph53%30.18 "HgN/A
9:30 AM41 °FScattered clouds.14 mph57%30.18 "HgN/A
9:00 AM39 °FPassing clouds.10 mph61%30.18 "HgN/A
8:30 AM39 °FPassing clouds.9 mph61%30.18 "HgN/A
8:00 AM37 °FSunny.7 mph65%30.18 "Hg10 mi
7:30 AM36 °FPassing clouds.3 mph70%30.18 "HgN/A
7:00 AM34 °FPassing clouds.6 mph70%30.18 "HgN/A
6:30 AM36 °FClear.8 mph70%30.15 "Hg10 mi
6:00 AM36 °FPassing clouds.10 mph70%30.15 "HgN/A
5:30 AM36 °FClear.13 mph70%30.15 "Hg10 mi
5:00 AM36 °FClear.13 mph70%30.15 "Hg10 mi
4:30 AM36 °FClear.8 mph70%30.12 "Hg10 mi
4:00 AM36 °FClear.9 mph75%30.12 "Hg10 mi
3:30 AM37 °FClear.13 mph70%30.12 "Hg10 mi
3:00 AM37 °FClear.14 mph70%30.12 "Hg10 mi
2:30 AM37 °FClear.15 mph70%30.09 "Hg10 mi
2:00 AM37 °FClear.12 mph70%30.09 "Hg10 mi
1:30 AM37 °FClear.14 mph70%30.09 "Hg10 mi
1:00 AM37 °FClear.16 mph70%30.09 "Hg10 mi
12:30 AM39 °FClear.17 mph65%30.07 "Hg10 mi
12:00 AM39 °FClear.16 mph70%30.07 "Hg10 mi
11:30 PM
Tue, Mar 3
37 °FClear.12 mph70%30.04 "Hg10 mi
11:00 PM36 °FClear.6 mph75%30.04 "Hg10 mi
10:30 PM37 °FClear.3 mph75%30.04 "Hg5 mi
10:00 PM37 °FClear.6 mph75%30.01 "Hg5 mi
9:30 PM37 °FClear.5 mph70%30.01 "Hg10 mi
9:00 PM37 °FClear.5 mph75%30.01 "Hg10 mi
8:30 PM37 °FClear.7 mph75%30.01 "Hg10 mi
8:00 PM37 °FClear.7 mph75%29.98 "Hg10 mi
7:30 PM37 °FClear.8 mph75%29.98 "Hg10 mi
7:00 PM39 °FClear.7 mph70%29.98 "Hg10 mi
6:30 PM41 °FPassing clouds.6 mph66%29.95 "HgN/A
6:00 PM43 °FPassing clouds.6 mph61%29.95 "HgN/A
5:30 PM45 °FPassing clouds.8 mph57%29.95 "HgN/A
5:00 PM45 °FPassing clouds.9 mph57%29.95 "HgN/A
4:30 PM45 °FScattered clouds.10 mph57%29.92 "HgN/A
4:00 PM45 °FPartly sunny.12 mph61%29.92 "HgN/A
3:30 PM45 °FPartly sunny.9 mph61%29.92 "HgN/A
3:00 PM45 °FPartly sunny.13 mph61%29.92 "HgN/A
2:30 PM45 °FPartly sunny.12 mph61%29.92 "HgN/A
2:00 PM43 °FPartly sunny.16 mph66%29.89 "HgN/A
1:30 PM43 °FPartly sunny.16 mph71%29.89 "HgN/A
1:00 PM43 °FPartly sunny.16 mph71%29.89 "HgN/A
12:30 PM41 °FMostly cloudy.15 mph76%29.89 "HgN/A
12:00 PM41 °FMostly cloudy.16 mph81%29.89 "HgN/A
11:30 AM41 °FBroken clouds.14 mph81%29.86 "HgN/A
11:00 AM39 °FPartly sunny.14 mph87%29.86 "HgN/A
Weather by CustomWeather, © 2015

See weather overviewHow to use our weather pages